Regional Weather Roundup
Issued by NWS Cleveland, OH

Home | Current Version | Previous Version | Text Only | Print | Product List | Glossary Off
Versions: 1 2 3 4 5 6 7 8 9 10 11 12 13 14 15 16 17 18 19 20 21 22 23 24 25 26 27 28 29 30 31 32 33 34 35 36 37 38 39 40 41 42 43 44 45 46 47 48 49 50

000
ASUS41 KCLE 261700
RWRCLE
OHIO REGIONAL WEATHER ROUNDUP
NATIONAL WEATHER SERVICE WILMINGTON, OH
1200 PM EST WED NOV 26 2014

NOTE: "FAIR" INDICATES FEW OR NO CLOUDS BELOW 12,000 FEET WITH NO
SIGNIFICANT WEATHER AND/OR OBSTRUCTIONS TO VISIBILITY.

OHZ001>008-015>018-024>027-034-035-043-044-261800-
   NORTHWEST OHIO

CITY           SKY/WX    TMP DP  RH WIND       PRES   REMARKS
DEFIANCE       CLOUDY    30  22  72 CALM      30.14F
FINDLAY        CLOUDY    32  23  69 NE6       30.11F WCI  26
TOLEDO EXPRESS CLOUDY    31  22  69 NW3       30.13F
TOLEDO METCALF CLOUDY    33  22  63 N5        30.14F WCI  29
LIMA           CLOUDY    32  22  66 E6        30.10F WCI  26
$$

OHZ009>014-019>023-028>033-038-089-261800-
   NORTHEAST OHIO

CITY           SKY/WX    TMP DP  RH WIND       PRES   REMARKS
CLE-HOPKINS    CLOUDY    36  25  64 E6        30.13F
CLE-LAKEFRONT  CLOUDY    37  25  61 E9        30.11F
CUY CO. ARPT   CLOUDY    37  28  70 E8        30.11F
LORAIN-ELYRIA  CLOUDY    35  26  69 SE7       30.11F WCI  29
ASHTABULA      CLOUDY    35  26  69 E7        30.10F WCI  29
AKRON-CANTON   CLOUDY    35  25  66 N5        30.08F
WOOSTER        CLOUDY    33  25  72 NE5       30.09F WCI  29
MANSFIELD      CLOUDY    32  24  72 CALM      30.08F
YOUNGSTOWN     LGT SNOW  33  28  81 NE5       30.07F WCI  29
$$

OHZ042-051>053-060>062-070>072-077>081-261800-
  SOUTHWEST OHIO

CITY           SKY/WX    TMP DP  RH WIND       PRES   REMARKS
CINC-COVINGTON CLOUDY    34  26  72 NE3       30.10F
CINC-LUNKEN    CLOUDY    35  27  72 NE6       30.13F
HAMILTON       CLOUDY    34  26  72 VRB3      30.13F
DAYTON         NOT AVBL
WRIGHT-PAT AFB NOT AVBL
DAYTON GENERAL CLOUDY    32  26  78 NE5       30.09F WCI  27
WILMINGTON     CLOUDY    32  26  78 VRB6      30.09F WCI  26
$$

OHZ036-037-039>041-045>050-054>059-063>069-073>076-082>088-261800-
  CENTRAL AND SOUTHEAST OHIO

CITY           SKY/WX    TMP DP  RH WIND       PRES   REMARKS
COLUMBUS       CLOUDY    35  26  69 N7        30.09F WCI  29
OSU AIRPORT    CLOUDY    34  25  69 NE3       30.10F
BOLTON FIELD   NOT AVBL
RICKENBACK AFB NOT AVBL
NEWARK         CLOUDY    35  26  69 N8        30.09F WCI  29
MARION         CLOUDY    33  25  72 NE7       30.10F WCI  27
LANCASTER      CLOUDY    37  28  70 N5        30.09F
ZANESVILLE     CLOUDY    36  27  69 NW5       30.07F
NEW PHILLY     CLOUDY    37  27  67 NE3       30.09F
$$



USA.gov is the U.S. government's official web portal to all federal, state and local government web resources and services.